Tracking 19717 objects as of 25-Jun-2019
HD Live streaming from Space Station
objects crossing your sky now

KALAMSAT-V2/PSLV

Track KALAMSAT-V2/PSLV now!
10-day predictions
KALAMSAT-V2/PSLV is classified as:


NORAD ID: 43948
Int'l Code: 2019-006B
Perigee: 451.2 km
Apogee: 458.8 km
Inclination: 98.8 °
Period: 93.5 minutes
Semi major axis: 6826 km
RCS: Unknown
Launch date: January 24, 2019
Source: India (IND)
Launch site: SRIHARIKOTA (SRI)

Uplink (MHz):
Downlink (MHz): 436.500
Beacon (MHz):
Mode:
Call sign:
Status: Unknown

aabbcc
Your satellite tracking list
Your tracking list is empty




NASA's NSSDC Master Catalog

Two Line Element Set (TLE):
1 43948U 19006B   19175.74156234 +.00000715 +00000-0 +21162-4 0  9998
2 43948 098.8027 120.0485 0005602 090.6475 269.5427 15.39405535023211
Source of the keplerian elements: AFSPC